Time,TemperatureF,DewpointF,PressureIn,WindDirection,WindDirectionDegrees,WindSpeedMPH,WindSpeedGustMPH,Humidity,HourlyPrecipIn,Conditions,Clouds,dailyrainin,SoftwareType,DateUTC
2013-02-18 00:02:00,-999.0,-99.9,30.28,NW,307,6.0,10.0,-999,-99.99,,,-99.99,,2013-02-18 05:02:00,
2013-02-18 00:11:00,34.0,-99.9,30.28,North,-999,-999.0,-999.0,-999,-99.99,,,-99.99,,2013-02-18 05:11:00,
2013-02-18 00:21:00,-999.0,-99.9,30.29,NW,315,6.0,9.0,-999,-99.99,,,-99.99,,2013-02-18 05:21:00,
2013-02-18 00:32:00,34.0,-99.9,30.29,North,-999,-999.0,-999.0,-999,-99.99,,,-99.99,,2013-02-18 05:32:00,
2013-02-18 00:42:00,-999.0,-99.9,30.29,NW,314,6.0,10.0,-999,-99.99,,,-99.99,,2013-02-18 05:42:00,
2013-02-18 00:52:00,34.0,-99.9,30.30,North,-999,-999.0,-999.0,-999,-99.99,,,-99.99,,2013-02-18 05:52:00,
2013-02-18 01:02:00,34.0,-99.9,30.30,North,-999,-999.0,-999.0,-999,-99.99,,,-99.99,,2013-02-18 06:02:00,
2013-02-18 01:11:00,34.0,-99.9,30.31,NNW,327,8.0,12.0,-999,-99.99,,,-99.99,,2013-02-18 06:11:00,
2013-02-18 01:22:00,-999.0,-99.9,30.31,NNW,328,8.0,14.0,-999,-99.99,,,-99.99,,2013-02-18 06:22:00,
2013-02-18 01:32:00,-999.0,-99.9,30.31,NW,326,8.0,11.0,-999,-99.99,,,-99.99,,2013-02-18 06:32:00,
2013-02-18 01:42:00,-999.0,-99.9,30.31,NNW,328,7.0,13.0,-999,-99.99,,,-99.99,,2013-02-18 06:42:00,
2013-02-18 01:52:00,-999.0,-99.9,30.31,NNW,332,9.0,15.0,-999,-99.99,,,-99.99,,2013-02-18 06:52:00,
2013-02-18 02:02:00,-999.0,-99.9,30.31,NNW,338,9.0,14.0,-999,-99.99,,,-99.99,,2013-02-18 07:02:00,
2013-02-18 02:11:00,-999.0,-99.9,30.31,NNW,334,7.0,16.0,-999,-99.99,,,-99.99,,2013-02-18 07:11:00,
2013-02-18 02:22:00,-999.0,-99.9,30.32,NNW,335,10.0,16.0,-999,-99.99,,,-99.99,,2013-02-18 07:22:00,
2013-02-18 02:32:00,34.0,-99.9,30.32,North,-999,-999.0,-999.0,-999,-99.99,,,-99.99,,2013-02-18 07:32:00,
2013-02-18 02:42:00,-999.0,-99.9,30.32,NNW,339,9.0,13.0,-999,-99.99,,,-99.99,,2013-02-18 07:42:00,
2013-02-18 02:52:00,33.0,-99.9,30.32,North,-999,-999.0,-999.0,-999,-99.99,,,-99.99,,2013-02-18 07:52:00,
2013-02-18 03:02:00,-999.0,-99.9,30.32,NNW,347,9.0,12.0,-999,-99.99,,,-99.99,,2013-02-18 08:02:00,
2013-02-18 03:22:00,-999.0,-99.9,30.32,North,357,8.0,12.0,-999,-99.99,,,-99.99,,2013-02-18 08:22:00,
2013-02-18 03:33:00,32.0,-99.9,30.32,North,-999,-999.0,-999.0,-999,-99.99,,,-99.99,,2013-02-18 08:33:00,
2013-02-18 03:42:00,-999.0,-99.9,30.32,North,4,8.0,12.0,-999,-99.99,,,-99.99,,2013-02-18 08:42:00,
2013-02-18 03:52:00,32.0,-99.9,30.33,North,-999,-999.0,-999.0,-999,-99.99,,,-99.99,,2013-02-18 08:52:00,
2013-02-18 04:03:00,-999.0,-99.9,30.32,North,351,12.0,14.0,-999,-99.99,,,-99.99,,2013-02-18 09:03:00,
2013-02-18 04:22:00,-999.0,-99.9,30.33,NNW,348,13.0,14.0,-999,-99.99,,,-99.99,,2013-02-18 09:22:00,
2013-02-18 04:32:00,-999.0,-99.9,30.34,North,352,9.0,16.0,-999,-99.99,,,-99.99,,2013-02-18 09:32:00,
2013-02-18 04:42:00,32.0,-99.9,30.34,North,354,11.0,14.0,-999,-99.99,,,-99.99,,2013-02-18 09:42:00,
2013-02-18 04:52:00,32.0,-99.9,30.35,North,-999,-999.0,-999.0,-999,-99.99,,,-99.99,,2013-02-18 09:52:00,
2013-02-18 05:01:00,-999.0,-99.9,30.35,North,356,9.0,13.0,-999,-99.99,,,-99.99,,2013-02-18 10:01:00,
2013-02-18 05:22:00,-999.0,-99.9,30.36,NNW,346,9.0,11.0,-999,-99.99,,,-99.99,,2013-02-18 10:22:00,
2013-02-18 05:32:00,31.0,-99.9,30.37,North,-999,-999.0,-999.0,-999,-99.99,,,-99.99,,2013-02-18 10:32:00,
2013-02-18 05:43:00,-999.0,-99.9,30.37,North,352,9.0,14.0,-999,-99.99,,,-99.99,,2013-02-18 10:43:00,
2013-02-18 05:53:00,-999.0,-99.9,30.37,North,352,9.0,13.0,-999,-99.99,,,-99.99,,2013-02-18 10:53:00,
2013-02-18 06:02:00,31.0,-99.9,30.38,North,-999,-999.0,-999.0,-999,-99.99,,,-99.99,,2013-02-18 11:02:00,
2013-02-18 06:12:00,-999.0,-99.9,30.38,NNW,347,7.0,11.0,-999,-99.99,,,-99.99,,2013-02-18 11:12:00,
2013-02-18 06:22:00,-999.0,-99.9,30.38,NNW,344,8.0,10.0,-999,-99.99,,,-99.99,,2013-02-18 11:22:00,
2013-02-18 06:33:00,31.0,-99.9,30.38,North,-999,-999.0,-999.0,-999,-99.99,,,-99.99,,2013-02-18 11:33:00,
2013-02-18 06:54:00,-999.0,-99.9,30.38,North,350,7.0,9.0,-999,-99.99,,,-99.99,,2013-02-18 11:54:00,
2013-02-18 07:02:00,32.0,-99.9,30.38,North,-999,-999.0,-999.0,-999,-99.99,,,-99.99,,2013-02-18 12:02:00,
2013-02-18 07:22:00,-999.0,-99.9,30.40,North,5,3.0,8.0,-999,-99.99,,,-99.99,,2013-02-18 12:22:00,
2013-02-18 07:32:00,-999.0,-99.9,30.40,North,357,5.0,6.0,-999,-99.99,,,-99.99,,2013-02-18 12:32:00,
2013-02-18 07:42:00,31.0,-99.9,30.40,North,-999,-999.0,-999.0,-999,-99.99,,,-99.99,,2013-02-18 12:42:00,
2013-02-18 07:54:00,-999.0,-99.9,30.41,North,1,7.0,8.0,-999,-99.99,,,-99.99,,2013-02-18 12:54:00,
2013-02-18 08:03:00,32.0,-99.9,30.42,North,-999,-999.0,-999.0,-999,-99.99,,,-99.99,,2013-02-18 13:03:00,
2013-02-18 08:12:00,-999.0,-99.9,30.42,North,350,6.0,9.0,-999,-99.99,,,-99.99,,2013-02-18 13:12:00,
2013-02-18 08:23:00,32.0,-99.9,30.42,North,-999,-999.0,-999.0,-999,-99.99,,,-99.99,,2013-02-18 13:23:00,
2013-02-18 08:33:00,32.0,-99.9,30.43,North,-999,-999.0,-999.0,-999,-99.99,,,-99.99,,2013-02-18 13:33:00,
2013-02-18 08:43:00,-999.0,-99.9,30.43,North,8,5.0,8.0,-999,-99.99,,,-99.99,,2013-02-18 13:43:00,
2013-02-18 08:53:00,33.0,-99.9,30.43,North,-999,-999.0,-999.0,-999,-99.99,,,-99.99,,2013-02-18 13:53:00,
2013-02-18 09:02:00,33.0,-99.9,30.44,North,-999,-999.0,-999.0,-999,-99.99,,,-99.99,,2013-02-18 14:02:00,
2013-02-18 09:12:00,-999.0,-99.9,30.44,North,10,6.0,10.0,-999,-99.99,,,-99.99,,2013-02-18 14:12:00,
2013-02-18 09:22:00,-999.0,-99.9,30.44,North,3,5.0,11.0,-999,-99.99,,,-99.99,,2013-02-18 14:22:00,
2013-02-18 09:34:00,-999.0,-99.9,30.45,NNE,15,3.0,10.0,-999,-99.99,,,-99.99,,2013-02-18 14:34:00,
2013-02-18 09:42:00,34.0,-99.9,30.45,North,-999,-999.0,-999.0,-999,-99.99,,,-99.99,,2013-02-18 14:42:00,
2013-02-18 09:54:00,-999.0,-99.9,30.45,North,7,4.0,7.0,-999,-99.99,,,-99.99,,2013-02-18 14:54:00,
2013-02-18 10:02:00,-999.0,-99.9,30.45,NNE,21,4.0,6.0,-999,-99.99,,,-99.99,,2013-02-18 15:02:00,
2013-02-18 10:12:00,-999.0,-99.9,30.46,NNE,29,4.0,6.0,-999,-99.99,,,-99.99,,2013-02-18 15:12:00,
2013-02-18 10:22:00,35.0,-99.9,30.45,North,-999,-999.0,-999.0,-999,-99.99,,,-99.99,,2013-02-18 15:22:00,
2013-02-18 10:32:00,36.0,-99.9,30.45,North,-999,-999.0,-999.0,-999,-99.99,,,-99.99,,2013-02-18 15:32:00,
2013-02-18 10:42:00,-999.0,-99.9,30.45,North,8,5.0,10.0,-999,-99.99,,,-99.99,,2013-02-18 15:42:00,
2013-02-18 10:53:00,37.0,-99.9,30.45,North,-999,-999.0,-999.0,-999,-99.99,,,-99.99,,2013-02-18 15:53:00,
2013-02-18 11:03:00,37.0,-99.9,30.46,North,-999,-999.0,-999.0,-999,-99.99,,,-99.99,,2013-02-18 16:03:00,
2013-02-18 11:12:00,-999.0,-99.9,30.45,North,350,3.0,6.0,-999,-99.99,,,-99.99,,2013-02-18 16:12:00,
2013-02-18 11:23:00,38.0,-99.9,30.45,North,-999,-999.0,-999.0,-999,-99.99,,,-99.99,,2013-02-18 16:23:00,
2013-02-18 11:33:00,-999.0,-99.9,30.45,North,7,4.0,7.0,-999,-99.99,,,-99.99,,2013-02-18 16:33:00,
2013-02-18 11:43:00,-999.0,-99.9,30.44,NNW,328,2.0,6.0,-999,-99.99,,,-99.99,,2013-02-18 16:43:00,
2013-02-18 11:53:00,-999.0,-99.9,30.45,WNW,296,4.0,6.0,-999,-99.99,,,-99.99,,2013-02-18 16:53:00,
2013-02-18 12:04:00,40.0,-99.9,30.44,North,-999,-999.0,-999.0,-999,-99.99,,,-99.99,,2013-02-18 17:04:00,
2013-02-18 12:13:00,-999.0,-99.9,30.44,North,350,2.0,4.0,-999,-99.99,,,-99.99,,2013-02-18 17:13:00,
2013-02-18 12:23:00,41.0,-99.9,30.44,North,-999,-999.0,-999.0,-999,-99.99,,,-99.99,,2013-02-18 17:23:00,
2013-02-18 12:33:00,42.0,-99.9,30.43,North,-999,-999.0,-999.0,-999,-99.99,,,-99.99,,2013-02-18 17:33:00,
2013-02-18 12:43:00,42.0,-99.9,30.42,North,-999,-999.0,-999.0,-999,-99.99,,,-99.99,,2013-02-18 17:43:00,
2013-02-18 12:53:00,-999.0,-99.9,30.42,NNE,33,2.0,7.0,-999,-99.99,,,-99.99,,2013-02-18 17:53:00,
2013-02-18 13:03:00,40.0,-99.9,30.42,North,-999,-999.0,-999.0,-999,-99.99,,,-99.99,,2013-02-18 18:03:00,
2013-02-18 13:23:00,41.0,-99.9,30.41,North,-999,-999.0,-999.0,-999,-99.99,,,-99.99,,2013-02-18 18:23:00,
2013-02-18 13:33:00,40.0,-99.9,30.41,North,-999,-999.0,-999.0,-999,-99.99,,,-99.99,,2013-02-18 18:33:00,
2013-02-18 13:53:00,-999.0,-99.9,30.39,South,184,5.0,7.0,-999,-99.99,,,-99.99,,2013-02-18 18:53:00,
2013-02-18 14:03:00,-999.0,-99.9,30.39,South,181,9.0,13.0,-999,-99.99,,,-99.99,,2013-02-18 19:03:00,
2013-02-18 14:13:00,-999.0,-99.9,30.39,South,189,10.0,13.0,-999,-99.99,,,-99.99,,2013-02-18 19:13:00,
2013-02-18 14:23:00,-999.0,-99.9,30.39,South,178,7.0,10.0,-999,-99.99,,,-99.99,,2013-02-18 19:23:00,
2013-02-18 14:34:00,41.0,-99.9,30.38,North,-999,-999.0,-999.0,-999,-99.99,,,-99.99,,2013-02-18 19:34:00,
2013-02-18 14:43:00,41.0,-99.9,30.38,North,-999,-999.0,-999.0,-999,-99.99,,,-99.99,,2013-02-18 19:43:00,
2013-02-18 14:53:00,-999.0,-99.9,30.38,South,177,8.0,11.0,-999,-99.99,,,-99.99,,2013-02-18 19:53:00,
2013-02-18 15:03:00,-999.0,-99.9,30.38,SSE,167,9.0,12.0,-999,-99.99,,,-99.99,,2013-02-18 20:03:00,
2013-02-18 15:24:00,-999.0,-99.9,30.38,SSE,165,8.0,12.0,-999,-99.99,,,-99.99,,2013-02-18 20:24:00,
2013-02-18 15:34:00,-999.0,-99.9,30.38,South,176,8.0,13.0,-999,-99.99,,,-99.99,,2013-02-18 20:34:00,
2013-02-18 15:43:00,-999.0,-99.9,30.37,South,186,9.0,11.0,-999,-99.99,,,-99.99,,2013-02-18 20:43:00,
2013-02-18 15:53:00,-999.0,-99.9,30.37,South,175,8.0,11.0,-999,-99.99,,,-99.99,,2013-02-18 20:53:00,
2013-02-18 16:03:00,43.0,-99.9,30.37,North,-999,-999.0,-999.0,-999,-99.99,,,-99.99,,2013-02-18 21:03:00,
2013-02-18 16:12:00,44.0,-99.9,30.37,North,-999,-999.0,-999.0,-999,-99.99,,,-99.99,,2013-02-18 21:12:00,
2013-02-18 16:23:00,-999.0,-99.9,30.37,South,184,9.0,11.0,-999,-99.99,,,-99.99,,2013-02-18 21:23:00,
2013-02-18 16:33:00,-999.0,-99.9,30.37,South,181,9.0,12.0,-999,-99.99,,,-99.99,,2013-02-18 21:33:00,
2013-02-18 16:53:00,43.0,-99.9,30.37,North,-999,-999.0,-999.0,-999,-99.99,,,-99.99,,2013-02-18 21:53:00,
2013-02-18 17:03:00,-999.0,-99.9,30.37,South,170,9.0,12.0,-999,-99.99,,,-99.99,,2013-02-18 22:03:00,
2013-02-18 17:13:00,44.0,-99.9,30.38,South,178,8.0,11.0,-999,-99.99,,,-99.99,,2013-02-18 22:13:00,
2013-02-18 17:23:00,-999.0,-99.9,30.38,SSW,192,10.0,11.0,-999,-99.99,,,-99.99,,2013-02-18 22:23:00,
2013-02-18 17:33:00,44.0,-99.9,30.38,North,-999,-999.0,-999.0,-999,-99.99,,,-99.99,,2013-02-18 22:33:00,
2013-02-18 17:44:00,-999.0,-99.9,30.38,South,179,10.0,12.0,-999,-99.99,,,-99.99,,2013-02-18 22:44:00,
2013-02-18 17:54:00,-999.0,-99.9,30.38,South,172,8.0,12.0,-999,-99.99,,,-99.99,,2013-02-18 22:54:00,
2013-02-18 18:03:00,-999.0,-99.9,30.38,South,174,9.0,11.0,-999,-99.99,,,-99.99,,2013-02-18 23:03:00,
2013-02-18 18:23:00,44.0,-99.9,30.38,North,-999,-999.0,-999.0,-999,-99.99,,,-99.99,,2013-02-18 23:23:00,
2013-02-18 18:34:00,44.0,-99.9,30.38,North,-999,-999.0,-999.0,-999,-99.99,,,-99.99,,2013-02-18 23:34:00,
2013-02-18 18:43:00,-999.0,-99.9,30.38,SSW,192,10.0,12.0,-999,-99.99,,,-99.99,,2013-02-18 23:43:00,
2013-02-18 18:54:00,-999.0,-99.9,30.38,South,189,9.0,12.0,-999,-99.99,,,-99.99,,2013-02-18 23:54:00,
2013-02-18 19:03:00,-999.0,-99.9,30.38,SSW,195,11.0,12.0,-999,-99.99,,,-99.99,,2013-02-19 00:03:00,
2013-02-18 19:13:00,-999.0,-99.9,30.38,SSW,192,11.0,12.0,-999,-99.99,,,-99.99,,2013-02-19 00:13:00,
2013-02-18 19:23:00,-999.0,-99.9,30.38,SSW,197,9.0,13.0,-999,-99.99,,,-99.99,,2013-02-19 00:23:00,
2013-02-18 19:36:00,45.0,-99.9,30.38,North,-999,-999.0,-999.0,-999,-99.99,,,-99.99,,2013-02-19 00:36:00,
2013-02-18 19:44:00,45.0,-99.9,30.38,North,-999,-999.0,-999.0,-999,-99.99,,,-99.99,,2013-02-19 00:44:00,
2013-02-18 19:55:00,-999.0,-99.9,30.38,SSW,202,11.0,13.0,-999,-99.99,,,-99.99,,2013-02-19 00:55:00,
2013-02-18 20:03:00,-999.0,-99.9,30.38,SSW,209,8.0,14.0,-999,-99.99,,,-99.99,,2013-02-19 01:03:00,
2013-02-18 20:15:00,-999.0,-99.9,30.38,SSW,209,10.0,13.0,-999,-99.99,,,-99.99,,2013-02-19 01:15:00,
2013-02-18 20:25:00,-999.0,-99.9,30.38,SSW,212,9.0,16.0,-999,-99.99,,,-99.99,,2013-02-19 01:25:00,
2013-02-18 20:35:00,46.0,-99.9,30.37,North,-999,-999.0,-999.0,-999,-99.99,,,-99.99,,2013-02-19 01:35:00,
2013-02-18 20:45:00,46.0,-99.9,30.37,North,-999,-999.0,-999.0,-999,-99.99,,,-99.99,,2013-02-19 01:45:00,
2013-02-18 20:57:00,-999.0,-99.9,30.37,SW,216,8.0,13.0,-999,-99.99,,,-99.99,,2013-02-19 01:57:00,
2013-02-18 21:04:00,47.0,-99.9,30.37,North,-999,-999.0,-999.0,-999,-99.99,,,-99.99,,2013-02-19 02:04:00,
2013-02-18 21:23:00,47.0,-99.9,30.37,North,-999,-999.0,-999.0,-999,-99.99,,,-99.99,,2013-02-19 02:23:00,
2013-02-18 21:35:00,-999.0,-99.9,30.37,SSW,213,11.0,16.0,-999,-99.99,,,-99.99,,2013-02-19 02:35:00,
2013-02-18 21:44:00,47.0,-99.9,30.37,North,-999,-999.0,-999.0,-999,-99.99,,,-99.99,,2013-02-19 02:44:00,
2013-02-18 21:56:00,48.0,-99.9,30.36,North,-999,-999.0,-999.0,-999,-99.99,,,-99.99,,2013-02-19 02:56:00,
2013-02-18 22:08:00,48.0,-99.9,30.36,North,-999,-999.0,-999.0,-999,-99.99,,,-99.99,,2013-02-19 03:08:00,
2013-02-18 22:15:00,48.0,-99.9,30.36,North,-999,-999.0,-999.0,-999,-99.99,,,-99.99,,2013-02-19 03:15:00,
2013-02-18 22:25:00,-999.0,-99.9,30.36,SSW,207,13.0,15.0,-999,-99.99,,,-99.99,,2013-02-19 03:25:00,
2013-02-18 22:35:00,-999.0,-99.9,30.36,SSW,200,14.0,17.0,-999,-99.99,,,-99.99,,2013-02-19 03:35:00,
2013-02-18 22:55:00,-999.0,-99.9,30.35,SSW,202,10.0,15.0,-999,-99.99,,,-99.99,,2013-02-19 03:55:00,
2013-02-18 23:03:00,-999.0,-99.9,30.35,SSW,201,13.0,14.0,-999,-99.99,,,-99.99,,2013-02-19 04:03:00,
2013-02-18 23:15:00,49.0,-99.9,30.34,North,-999,-999.0,-999.0,-999,-99.99,,,-99.99,,2013-02-19 04:15:00,
2013-02-18 23:24:00,49.0,-99.9,30.34,North,-999,-999.0,-999.0,-999,-99.99,,,-99.99,,2013-02-19 04:24:00,
2013-02-18 23:34:00,49.0,-99.9,30.33,North,-999,-999.0,-999.0,-999,-99.99,,,-99.99,,2013-02-19 04:34:00,
2013-02-18 23:45:00,50.0,-99.9,30.32,North,-999,-999.0,-999.0,-999,-99.99,,,-99.99,,2013-02-19 04:45:00,
2013-02-18 23:56:00,50.0,-99.9,30.32,North,-999,-999.0,-999.0,-999,-99.99,,,-99.99,,2013-02-19 04:56:00,